Location: Hylvaty SDH
(49.9612°N, 16.4057°E)
Time: 21:51:14
(UTC+02:00)

Transit 2A Rocket - Visible Passes

Search period start: 29 September 2020 00:00
Search period end: 09 October 2020 00:00
Orbit: 585 x 918 km, 66.7° (Epoch: 28 September)

Date Brightness Start Highest point End Pass type
(mag) Time Alt. Az. Time Alt. Az. Time Alt. Az.
29 Sep 7.9 01:42:26 10° NNW 01:42:33 11° NNW 01:42:33 11° NNW visible
29 Sep 7.2 19:46:25 10° W 19:51:40 29° NNW 19:56:48 10° NNE visible
29 Sep 7.7 21:32:42 10° NW 21:36:18 16° N 21:39:47 10° NNE visible
29 Sep 7.4 23:17:12 10° NNW 23:20:50 18° NNE 23:20:50 18° NNE visible
30 Sep 7.8 00:59:51 10° NNW 01:00:42 14° NNW 01:00:42 14° NNW visible
30 Sep 6.8 19:03:04 10° WSW 19:08:43 37° NW 19:14:16 10° NNE visible
30 Sep 7.6 20:49:07 10° NW 20:53:04 17° NNW 20:56:54 10° NNE visible
30 Sep 7.4 22:34:24 10° NNW 22:38:03 16° N 22:39:00 16° NNE visible
01 Oct 7.6 00:17:18 10° NNW 00:18:53 17° NNW 00:18:53 17° NNW visible
01 Oct 7.5 20:05:28 10° WNW 20:09:54 20° NNW 20:14:12 10° NNE visible
01 Oct 7.5 21:51:24 10° NNW 21:54:49 15° N 21:57:14 12° NNE visible
01 Oct 7.5 23:34:44 10° NNW 23:37:06 19° N 23:37:06 19° N visible
02 Oct 7.3 19:21:52 10° W 19:26:47 25° NNW 19:31:36 10° NNE visible
02 Oct 7.6 21:08:09 10° NW 21:11:33 15° N 21:14:52 10° NNE visible
02 Oct 7.3 22:52:08 10° NNW 22:55:20 20° N 22:55:20 20° N visible
03 Oct 7.9 00:34:42 10° NNW 00:35:13 13° NNW 00:35:13 13° NNW visible
03 Oct 7.6 20:24:39 10° NW 20:28:19 16° N 20:31:52 10° NNE visible
03 Oct 7.3 22:09:26 10° NNW 22:13:17 18° NNE 22:13:37 17° NNE visible
03 Oct 7.7 23:52:09 10° NNW 23:53:29 17° NNW 23:53:29 17° NNW visible
04 Oct 7.5 19:41:02 10° WNW 19:45:06 18° NNW 19:49:04 10° NNE visible
04 Oct 7.3 21:26:35 10° NNW 21:30:04 16° N 21:31:54 14° NNE visible
04 Oct 7.4 23:09:35 10° NNW 23:11:47 20° N 23:11:47 20° N visible
05 Oct 7.3 18:57:23 10° WNW 19:01:57 21° NNW 19:06:24 10° NNE visible
05 Oct 7.5 20:43:29 10° NNW 20:46:49 15° N 20:50:03 10° NE visible
05 Oct 7.2 22:27:01 10° NNW 22:30:05 21° N 22:30:05 21° N visible
06 Oct 8.0 00:09:34 10° NW 00:09:58 12° NW 00:09:58 12° NW visible
06 Oct 7.5 20:00:08 10° NW 20:03:34 15° N 20:06:53 10° NNE visible
06 Oct 7.1 21:44:24 10° NNW 21:48:25 19° NNE 21:48:25 19° NNE visible
06 Oct 7.7 23:26:59 10° NNW 23:28:17 17° NNW 23:28:17 17° NNW visible
07 Oct 7.4 19:16:35 10° NW 19:20:20 17° NNW 19:23:58 10° NNE visible
07 Oct 7.2 21:01:39 10° NNW 21:05:19 17° NNE 21:06:45 15° NNE visible
07 Oct 7.3 22:44:26 10° NNW 22:46:38 21° NNW 22:46:38 21° NNW visible
08 Oct 7.3 20:18:43 10° NNW 20:22:05 15° N 20:25:06 11° NE visible
08 Oct 7.0 22:01:53 10° NNW 22:04:59 23° N 22:04:59 23° N visible
08 Oct 7.9 23:44:27 10° NW 23:44:52 12° NW 23:44:52 12° NW visible
